Regional Weather Roundup
Issued by NWS

Home | Current Version | Previous Version | Graphics & Text | Print | Product List | Glossary On
Versions: 1 2 3 4 5 6 7 8 9 10 11 12 13 14 15 16 17 18 19 20 21 22 23 24 25 26 27 28
000
ASUS45 KCYS 171610
RWRWY

WYOMING REGIONAL WEATHER ROUNDUP
NATIONAL WEATHER SERVICE CHEYENNE WY
900 AM MST FRI NOV 17 2017

NOTE:  "FAIR" INDICATES FEW OR NO CLOUDS BELOW 12,000 FEET
WITH NO SIGNIFICANT WEATHER AND/OR OBSTRUCTIONS TO VISIBILITY.

WYZ001-171700-
YELLOWSTONE NATIONAL PARK

CITY           SKY/WX    TMP DP  RH WIND       PRES   REMARKS
LK YELLOWSTONE   N/A     23  21  92 CALM      29.68R
W YELLOWSTONE  NOT AVBL

$$
WYZ002>013-054>058-071-098>099-171700-
NORTHERN WYOMING

CITY           SKY/WX    TMP DP  RH WIND       PRES   REMARKS
JACKSON        FLURRIES  31  28  89 S15       29.68S WCI  20
CODY           SNOW      32  30  93 N7        29.68R VSB 1/4 WCI  26
GREYBULL       CLOUDY    36  32  85 W9        29.64R WCI  29
WORLAND        CLOUDY    36  35  96 SW6       29.63R WCI  31
SHERIDAN       CLOUDY    33  33 100 S6        29.66F WCI  28
BUFFALO        SNOW      32  30  92 SE3       29.66F VSB<1/4
GILLETTE       CLOUDY    34  32  92 CALM      29.65F FOG
HULETT         LGT SNOW  34  32  93 SE3       29.68F VSB 1
NEWCASTLE      CLOUDY    36  32  87 S7        29.69S WCI  30

$$
WYZ014>020-022>026-101>103-171700-
CENTRAL WYOMING

CITY           SKY/WX    TMP DP  RH WIND       PRES   REMARKS
BIG PINEY      CLOUDY    31  30  96 NE6       29.72R WCI  25
PINEDALE       CLOUDY    32  27  80 NW12      29.73R WCI  23
DUBOIS         PTSUNNY   30  23  74 W12       29.62F WCI  21
LANDER         FAIR      43  27  53 W12       29.60F
RIVERTON       FAIR      38  35  89 CALM      29.63R
CASPER         FAIR      44  39  82 S15       29.62F
DOUGLAS        FAIR      44  41  89 CALM      29.64F

$$
WYZ021-027>030-104>119-171700-
SOUTHERN WYOMING

CITY           SKY/WX    TMP DP  RH WIND       PRES   REMARKS
EVANSTON       SNOW      31  30  96 W29G36    29.79  VSB 1/2 WCI  16
FORT BRIDGER   SNOW      32  32 100 W14       29.82R VSB<1/4 WCI  22
ROCK SPRINGS   SNOW      31  31 100 SW16      29.76R VSB 1/2 WCI  20
DIXON          LGT RAIN  38  35  88 N9        29.76R WCI  31
RAWLINS        LGT SNOW  33  33 100 SW6       29.72S WCI  28
SARATOGA       SNOW      32  32 100 NW3       29.74F VSB 1/4
LARAMIE        LGT RAIN  39  36  89 SE6       29.71F WCI  35
CHEYENNE       FAIR      47  36  65 CALM      29.68S
TORRINGTON     LGT RAIN  42  31  64 SE12      29.65F
PINE BLUFFS    FAIR      37  30  75 NE12      29.71F WCI  30

$$




USA.gov is the U.S. government's official web portal to all federal, state and local government web resources and services.